CW1459 Weather Reports


time (UTC)temp
C
wind
direction
speed
KPH
gust
KPH
rain 1hr
cm
rain 24hr
cm
rain mn
cm
humidity
%
barometer
mb
20260507160331 16 340 8.0 17.7 0.00 0.05 0.00 45 1010.0
20260507155330 16 345 11.3 22.5 0.00 0.05 0.00 44 1010.1
20260507154313 15 35 6.4 16.1 0.00 0.05 0.00 45 1010.2
20260507153335 15 317 6.4 19.3 0.00 0.05 0.00 42 1010.2
20260507152315 15 5 3.2 16.1 0.00 0.05 0.00 42 1010.3
20260507151336 15 265 6.4 14.5 0.00 0.05 0.00 42 1010.5
20260507150334 15 9 6.4 19.3 0.00 0.05 0.00 42 1010.7
20260507145328 15 330 9.7 20.9 0.00 0.13 0.00 44 1010.9
20260507144331 13 342 8.0 17.7 0.00 0.13 0.00 47 1011.0
20260507143325 13 42 8.0 19.3 0.00 0.13 0.00 47 1011.0
20260507142314 13 328 8.0 17.7 0.00 0.13 0.00 48 1011.1
20260507141337 14 350 12.9 20.9 0.00 0.13 0.00 44 1011.1
20260507140351 13 21 9.7 17.7 0.00 0.13 0.00 48 1011.3
20260507135313 13 338 8.0 16.1 0.00 0.25 0.00 51 1011.5
20260507134331 13 325 9.7 19.3 0.00 0.25 0.00 48 1011.7
20260507133358 13 328 11.3 19.3 0.00 0.25 0.00 55 1011.6
20260507132317 13 342 8.0 17.7 0.00 0.25 0.00 56 1011.7
20260507131335 12 329 9.7 16.1 0.00 0.25 0.00 59 1011.7
20260507130337 12 341 9.7 17.7 0.00 0.25 0.00 56 1011.8
20260507125320 12 280 3.2 14.5 0.00 0.36 0.00 59 1011.9
20260507124312 12 344 6.4 12.9 0.00 0.36 0.00 59 1011.8
20260507123337 12 329 6.4 9.7 0.00 0.36 0.00 58 1011.7
20260507122318 11 5 4.8 14.5 0.00 0.36 0.00 61 1011.6
20260507121331 11 302 6.4 12.9 0.00 0.36 0.00 61 1011.5
20260507120312 11 309 6.4 12.9 0.00 0.36 0.00 63 1011.4
20260507115337 11 13 3.2 6.4 0.00 0.46 0.00 64 1011.5
20260507114314 11 336 4.8 8.0 0.00 0.46 0.00 64 1011.5
20260507113352 10 317 4.8 8.0 0.00 0.46 0.00 63 1011.4
20260507112334 10 318 3.2 8.0 0.00 0.46 0.00 65 1011.4
20260507111314 10 319 1.6 6.4 0.00 0.46 0.00 66 1011.4
20260507110313 10 345 6.4 14.5 0.00 0.46 0.00 67 1011.2
20260507105317 10 5 3.2 8.0 0.00 0.46 0.00 69 1011.1
20260507104337 10 5 1.6 3.2 0.00 0.46 0.00 69 1011.0
20260507103313 10 5 1.6 4.8 0.00 0.46 0.00 69 1010.7
20260507102315 10 330 1.6 4.8 0.00 0.46 0.00 69 1010.8
20260507101335 10 348 1.6 6.4 0.00 0.46 0.00 66 1010.6
20260507100312 10 360 4.8 8.0 0.00 0.46 0.00 65 1010.6
20260507095321 10 23 3.2 12.9 0.00 0.46 0.00 65 1010.3
20260507094331 10 28 6.4 12.9 0.00 0.46 0.00 65 1010.2
20260507093334 11 329 4.8 8.0 0.00 0.46 0.00 67 1010.3
20260507092330 11 325 3.2 8.0 0.00 0.46 0.00 68 1010.5
20260507091323 11 5 1.6 4.8 0.00 0.46 0.00 69 1010.4
20260507090329 11 9 1.6 4.8 0.00 0.46 0.00 68 1010.4
20260507085334 11 25 1.6 6.4 0.00 0.46 0.00 69 1010.3
20260507084315 11 342 6.4 12.9 0.00 0.46 0.00 69 1010.3
20260507083340 11 5 3.2 6.4 0.00 0.46 0.00 70 1010.2
20260507082330 11 11 3.2 9.7 0.00 0.46 0.00 71 1010.2
20260507081332 11 342 6.4 9.7 0.00 0.46 0.00 71 1010.0
20260507080335 11 335 9.7 16.1 0.00 0.46 0.00 73 1009.8
20260507075337 11 350 4.8 8.0 0.00 0.46 0.00 76 1009.6
20260507074338 11 336 3.2 8.0 0.00 0.46 0.00 78 1009.5
20260507073359 11 15 4.8 9.7 0.00 0.46 0.00 78 1009.5
20260507072351 11 341 6.4 12.9 0.00 0.46 0.00 79 1009.5
20260507071336 11 338 6.4 14.5 0.00 0.46 0.00 80 1009.8
20260507070337 12 351 3.2 4.8 0.00 0.46 0.00 81 1010.1
20260507065315 12 5 1.6 3.2 0.00 0.46 0.00 81 1010.1
20260507064322 12 349 3.2 6.4 0.00 0.46 0.00 81 1010.0
20260507063323 12 348 3.2 6.4 0.00 0.46 0.00 81 1010.0
20260507062329 12 331 1.6 3.2 0.00 0.46 0.00 82 1010.1
20260507061400 12 336 1.6 6.4 0.00 0.46 0.00 82 1010.1
20260507060341 12 333 3.2 6.4 0.00 0.46 0.00 81 1010.1
20260507055320 12 5 1.6 3.2 0.00 0.46 0.00 81 1010.1
20260507054340 12 25 1.6 9.7 0.00 0.46 0.00 80 1009.9
20260507053316 12 338 3.2 4.8 0.00 0.46 0.00 80 1009.9
20260507052315 12 334 3.2 6.4 0.00 0.46 0.00 80 1009.9
20260507051338 12 18 3.2 8.0 0.00 0.46 0.00 79 1009.9
20260507050401 12 317 4.8 9.7 0.00 0.46 0.00 79 1009.9
20260507045400 12 346 6.4 12.9 0.00 0.46 0.00 79 1009.8
20260507044318 12 5 6.4 16.1 0.00 0.46 0.00 80 1009.7
20260507043353 12 351 6.4 14.5 0.00 0.46 0.00 80 1009.6
20260507042337 12 343 3.2 6.4 0.00 0.46 0.00 81 1009.7
20260507041318 12 341 4.8 9.7 0.00 0.46 0.00 82 1010.1
20260507040324 12 345 4.8 14.5 0.00 0.46 0.00 82 1010.1
20260507035320 12 338 6.4 12.9 0.00 0.46 0.46 82 1010.0
20260507034339 13 343 3.2 12.9 0.00 0.46 0.46 83 1009.5
20260507033328 13 320 8.0 19.3 0.00 0.46 0.46 82 1009.7
20260507032334 13 315 9.7 17.7 0.00 0.46 0.46 83 1009.6
20260507031315 13 343 6.4 12.9 0.00 0.46 0.46 83 1009.7
20260507030336 13 325 9.7 19.3 0.00 0.46 0.46 83 1009.7
20260507025338 13 325 9.7 16.1 0.00 0.46 0.46 82 1009.7
20260507024352 13 339 9.7 16.1 0.00 0.46 0.46 82 1009.3
20260507023341 13 5 16.1 29.0 0.00 0.46 0.46 82 1009.4
20260507022335 13 333 11.3 19.3 0.00 0.46 0.46 83 1009.2
20260507021316 13 351 8.0 17.7 0.00 0.46 0.46 83 1009.1
20260507020316 13 348 6.4 14.5 0.00 0.46 0.46 83 1009.2
20260507015318 14 98 6.4 12.9 0.00 0.46 0.46 83 1009.3
20260507014320 14 43 1.6 12.9 0.00 0.46 0.46 83 1009.1
20260507013317 15 11 6.4 12.9 0.00 0.46 0.46 83 1008.8
20260507012319 15 333 8.0 12.9 0.00 0.46 0.46 83 1008.9
20260507011340 15 360 8.0 19.3 0.00 0.46 0.46 83 1008.8
20260507010340 15 346 8.0 12.9 0.00 0.46 0.46 83 1008.9
20260507005336 15 338 9.7 22.5 0.00 0.46 0.46 83 1009.2
20260507004314 15 338 6.4 16.1 0.03 0.46 0.46 84 1009.4
20260507003333 15 351 8.0 17.7 0.03 0.46 0.46 85 1008.9
20260507002315 16 5 6.4 12.9 0.03 0.46 0.46 86 1008.8
20260507001355 16 334 4.8 8.0 0.03 0.46 0.46 86 1008.8
20260507000314 16 271 3.2 14.5 0.03 0.46 0.46 86 1008.7
20260506235339 16 329 4.8 14.5 0.03 0.46 0.46 87 1008.5
20260506234319 16 303 6.4 12.9 0.00 0.43 0.43 88 1008.1
20260506233356 17 281 9.7 14.5 0.00 0.43 0.43 90 1007.9
20260506232338 17 319 1.6 12.9 0.00 0.43 0.43 90 1007.4
20260506231339 17 321 4.8 11.3 0.00 0.43 0.43 91 1007.4
20260506230340 17 335 3.2 9.7 0.00 0.43 0.43 91 1007.2
20260506225314 17 297 4.8 9.7 0.00 0.43 0.43 91 1007.4
20260506224327 18 162 1.6 4.8 0.00 0.43 0.43 91 1007.3
20260506223345 18 162 0.0 1.6 0.00 0.43 0.43 92 1007.0
20260506222333 18 162 1.6 4.8 0.00 0.43 0.43 92 1006.9
20260506221318 18 162 0.0 0.0 0.00 0.43 0.43 92 1006.9
20260506220338 18 162 0.0 3.2 0.03 0.43 0.43 92 1006.9
20260506215333 18 286 1.6 4.8 0.03 0.43 0.43 91 1006.7
20260506214314 18 244 1.6 4.8 0.03 0.43 0.43 91 1006.9
20260506213332 18 234 3.2 3.2 0.03 0.43 0.43 91 1006.7
20260506212314 18 234 0.0 4.8 0.03 0.43 0.43 90 1006.5
20260506211340 18 234 1.6 6.4 0.03 0.43 0.43 90 1006.4
20260506210315 18 19 1.6 4.8 0.00 0.41 0.41 89 1006.1
20260506205313 18 264 1.6 3.2 0.00 0.41 0.41 89 1005.9
20260506204339 18 264 0.0 4.8 0.00 0.41 0.41 89 1005.9
20260506203332 18 219 1.6 11.3 0.00 0.41 0.41 89 1005.8
20260506202324 18 151 3.2 4.8 0.00 0.41 0.41 89 1005.7
20260506201339 18 130 1.6 4.8 0.00 0.41 0.41 89 1005.9
20260506200333 18 161 1.6 9.7 0.00 0.41 0.41 89 1006.0
20260506195318 18 154 3.2 8.0 0.00 0.41 0.41 89 1006.0
20260506194315 18 153 4.8 8.0 0.00 0.41 0.41 89 1006.0
20260506193316 18 175 3.2 8.0 0.00 0.41 0.41 89 1005.9
20260506192333 18 194 3.2 11.3 0.00 0.41 0.41 89 1006.1
20260506191317 18 174 4.8 11.3 0.00 0.41 0.41 90 1006.1
20260506190338 18 118 4.8 11.3 0.00 0.41 0.41 90 1006.1
20260506185339 18 158 3.2 9.7 0.00 0.41 0.41 92 1006.2
20260506184342 17 156 3.2 8.0 0.00 0.41 0.41 90 1006.4
20260506183314 17 159 3.2 11.3 0.00 0.41 0.41 90 1006.5
20260506182320 17 146 4.8 12.9 0.00 0.41 0.41 88 1006.6
20260506181338 18 189 6.4 14.5 0.00 0.41 0.41 88 1006.6
20260506180313 18 167 6.4 12.9 0.00 0.41 0.41 87 1006.5
20260506175314 18 223 9.7 16.1 0.00 0.41 0.41 85 1006.4
20260506174314 18 202 9.7 17.7 0.00 0.41 0.41 85 1006.5
20260506173322 18 172 9.7 17.7 0.00 0.41 0.41 84 1006.3
20260506172315 18 181 8.0 14.5 0.00 0.41 0.41 84 1006.2
20260506171318 18 147 8.0 19.3 0.00 0.41 0.41 83 1006.1
20260506170324 18 168 6.4 17.7 0.00 0.41 0.41 83 1006.2
20260506165336 18 178 9.7 17.7 0.00 0.41 0.41 83 1006.2
20260506164316 18 202 9.7 19.3 0.00 0.41 0.41 82 1006.2
20260506163339 18 151 6.4 22.5 0.00 0.41 0.41 84 1006.2
20260506162338 18 221 11.3 22.5 0.00 0.41 0.41 83 1006.3
20260506161349 18 145 11.3 19.3 0.00 0.41 0.41 85 1006.2